Lexington Weather

Lexington, Massachusetts, USA

35°F
10/30/2020 5:59am 
  • Lexington Conditions: Overcast
  • Temperature: 35.2°F / 1.8°CColder 0.9°F than last hour.
  • Dew Point: 34.5°FDecreased 0.9°Fsince last hour.
  • Relative Humidity: 97
  • Wind: Wind from NNE NNE 1 mph, 10-min avg: 2 mph, gust: 4 mph
  • Barometer: 29.76 in Steady
  • Visibility: 10 miles
  • Rain Today: 0.08 in
  •   
Southeast Middlesex County - Winter Weather Advisory
 - SEE ALL NEARBY ALERTS -

Regional Weather Roundup
for Boston / Norton, MA

        
000
ASUS41 KBOX 281505
RWRBOX

REGIONAL WEATHER ROUNDUP
NATIONAL WEATHER SERVICE BOSTON/NORTON MA
1100 AM EDT WED OCT 28 2020

NOTE:  "FAIR" INDICATES FEW OR NO CLOUDS BELOW 12,000 FEET WITH NO 
SIGNIFICANT WEATHER AND/OR OBSTRUCTIONS TO VISIBILITY.

MAZALL-281600-
EASTERN MASSACHUSETTS
  
CITY           SKY/WX    TMP DP  RH WIND       PRES   REMARKS
BOSTON         LGT RAIN  48  44  86 SE7       30.09F FOG              
BEVERLY        LGT RAIN  46  44  93 NE3       30.08  FOG              
LAWRENCE       LGT RAIN  45  43  93 CALM      30.11  FOG              
BEDFORD        LGT RAIN  45  44  97 NW3       30.08S                  
BLUE HILL        N/A     44  44 100 E6        30.05F                  
NORWOOD        LGT RAIN  48  44  86 CALM      30.08S FOG              
MARSHFIELD     CLOUDY    50  48  93 MISG      30.07F                  
PLYMOUTH       LGT RAIN  49  47  93 E6        30.07  FOG              
TAUNTON        LGT RAIN  49  46  90 E5        30.06F FOG              
NEW BEDFORD    CLOUDY    50  48  93 E6        30.05F                  
$$

MAZALL-281600-
CAPE COD AND THE ISLANDS
  
CITY           SKY/WX    TMP DP  RH WIND       PRES   REMARKS
FALMOUTH       CLOUDY    48  50 100 SE9       30.06F FOG              
HYANNIS        LGT RAIN  50  48  93 SE7       30.05F                  
CHATHAM        LGT RAIN  51  48  89 E10G17    30.08F FOG              
PROVINCETOWN   CLOUDY    49  47  93 E7        30.08F                  
NANTUCKET      CLOUDY    52  48  86 SE13      30.07                   
MARTHAS VNYRD  LGT RAIN  51  49  92 SE9       30.05  FOG              
$$
 
MAZALL-281600-
CENTRAL AND WESTERN MASSACHUSETTS
  
CITY           SKY/WX    TMP DP  RH WIND       PRES   REMARKS
WORCESTER      LGT RAIN  42  40  92 E6        30.05F FOG              
FITCHBURG      LGT RAIN  43  42  97 CALM      30.08F FOG              
ORANGE         LGT RAIN  44  42  93 S5        30.07F FOG              
SPRINGFIELD    LGT RAIN  45  44  96 NE5       30.05F FOG              
WESTFIELD      LGT RAIN  46  45  96 CALM      30.06F FOG              
NORTH ADAMS    CLOUDY    45  42  89 CALM      30.03F                  
PITTSFIELD     LGT RAIN  44  42  93 E3        30.01F FOG              
$$
 
RIZALL-281600-
RHODE ISLAND
  
CITY           SKY/WX    TMP DP  RH WIND       PRES   REMARKS
PROVIDENCE     LGT RAIN  48  47  96 NE3       30.06F                  
NEWPORT        LGT RAIN  49  48  97 E8        30.04F FOG              
BLOCK ISLAND   LGT RAIN  53  52  96 SE10      30.03                   
SMITHFIELD     LGT RAIN  45  45 100 E6        30.06S FOG              
WESTERLY       RAIN      50  48  93 VRB3      30.03F FOG              
$$
 
CTZALL-281600-
CONNECTICUT
  
CITY           SKY/WX    TMP DP  RH WIND       PRES   REMARKS
BRADLEY INTL   LGT RAIN  46  44  93 N6        30.06  FOG              
HARTFORD       HVY RAIN  47  44  90 N7        30.05S VSB 1            
BRIDGEPORT     LGT RAIN  50  49  96 N10       30.02F FOG              
DANBURY        LGT RAIN  47  46  97 N5        30.04  FOG              
GROTON         LGT RAIN  50  49  96 SW3       30.01F FOG              
NEW HAVEN      LGT RAIN  51  49  92 NE7       30.02F FOG              
CHESTER        LGT RAIN  48  48 100 NE3       30.02F                  
MERIDEN        LGT RAIN  48  45  89 N5        30.04S                  
WILLIMANTIC    LGT RAIN  46  44  93 N5        30.04  FOG              
OXFORD         LGT RAIN  46  46 100 N7        30.03  VSB 1            
$$

MEZ002-015-021-024-NHZ003-005-008-011-012-014-VTZ005-008-281600-
NORTHERN NEW ENGLAND
  
CITY           SKY/WX    TMP DP  RH WIND       PRES   REMARKS
PORTLAND ME    CLOUDY    39  36  89 N6        30.10                   
BANGOR ME      CLOUDY    34  20  56 E5        30.14F WCI  30          
CONCORD NH     LGT RAIN  40  39  97 CALM      30.08                   
MANCHESTER NH  LGT RAIN  43  40  89 CALM      30.07F FOG              
NASHUA NH      LGT RAIN  42  42 100 CALM      30.09F FOG              
PORTSMOUTH NH  LGT RAIN  42  40  93 CALM      30.07  FOG              
JAFFREY NH     LGT RAIN  41  38  89 S6        30.05  FOG              
KEENE NH       LGT RAIN  43  42  97 CALM      30.06F FOG              
BURLINGTON VT  CLOUDY    44  38  79 S12       30.00                   
MT. WASHINGTON SNOWSHWR  23  23 100 SW24G35     N/A  VSB 1/16WCI   7  
$$

NYZ052-076-281600-
EASTERN NEW YORK
  
CITY           SKY/WX    TMP DP  RH WIND       PRES   REMARKS
ALBANY         DRIZZLE   42  42 100 SE3       30.04  FOG              
NEW YORK CITY  CLOUDY    55  52  89 NE3       30.00F FOG              
$$
 
ANZALL-281600-
MARINE OBSERVATIONS
  
STATION/POSITION TIME  TEMP    WIND        PRES    VSBY  WAVE
                       AIR SEA DIR/SP/G                  HT/PER
                 (UTC) (F)     (DEG/KT/KT) (MB)    (MI)  (FT/S)
BOSTON BUOY      1450   50 56  110/ 10/ 12 1017.6          2/ 8
BUZZARDS BAY     1400          110/ 17/ 18 1019.3F
NANTUCKET SOUND  1450          120/ 16/ 17   N/A           2/ 3
MASS BAY-STELLWA 1404   49 56  140/  8/ 12 1018.3F  1 7/8  2/ 8
ISLE OF SHOALS   NOT AVBL
S OF BLOCK IS    1426      62                N/A           3/ 8
$$

......................KEY.........................
  SKY/WX - SKY CONDITION/PRESENT WEATHER
  TMP    - TEMPERATURE IN FAHRENHEIT
  DWPT   - DEWPOINT IN FAHRENHEIT
  RH     - RELATIVE HUMIDITY IN PERCENT
  WIND   - DIRECTION AND SPEED IN MPH
  PRES   - MEAN SEA LEVEL PRESSURE IN INCHES OF HG
  WCI    - WIND CHILL INDEX
  VSB    - VISIBILITY IN MILES
  HX     - HEAT INDEX
  TC     - TEMPERATURE IN CELSIUS
  VRB    - VARIABLE WIND DIRECTION
  N/A    - NOT AVAILABLE
  
      

Other recent Regional Weather Roundups

Fri Oct 30, 5:04am

Fri Oct 30, 4:04am

Fri Oct 30, 3:04am

Fri Oct 30, 2:04am

Fri Oct 30, 1:04am

Fri Oct 30, 12:04am

Thu Oct 29, 11:04pm

Thu Oct 29, 10:04pm

Thu Oct 29, 9:04pm

Thu Oct 29, 8:04pm

Thu Oct 29, 7:04pm

Thu Oct 29, 6:04pm

Thu Oct 29, 5:05pm

Thu Oct 29, 4:05pm

Thu Oct 29, 3:05pm

Thu Oct 29, 2:04pm

Thu Oct 29, 1:04pm

Thu Oct 29, 12:04pm

Thu Oct 29, 11:04am

Thu Oct 29, 10:04am

Thu Oct 29, 9:04am

Thu Oct 29, 8:04am

Thu Oct 29, 7:04am

Thu Oct 29, 6:04am

Thu Oct 29, 5:04am

Thu Oct 29, 4:04am

Thu Oct 29, 3:04am

Thu Oct 29, 2:04am

Thu Oct 29, 1:05am

Thu Oct 29, 12:04am

Wed Oct 28, 11:05pm

Wed Oct 28, 10:04pm

Wed Oct 28, 9:04pm

Wed Oct 28, 8:04pm

Wed Oct 28, 7:05pm

Wed Oct 28, 6:04pm

Wed Oct 28, 5:05pm

Wed Oct 28, 4:04pm

Wed Oct 28, 3:04pm

Wed Oct 28, 2:04pm

Wed Oct 28, 1:05pm

Wed Oct 28, 12:05pm

Wed Oct 28, 10:04am

Wed Oct 28, 9:04am

Wed Oct 28, 8:04am

Wed Oct 28, 7:04am

Wed Oct 28, 6:04am

Wed Oct 28, 5:05am

Wed Oct 28, 4:04am

Wed Oct 28, 3:04am

Wed Oct 28, 2:04am

Wed Oct 28, 1:05am

Wed Oct 28, 12:04am

Tue Oct 27, 11:04pm

Tue Oct 27, 10:04pm

Tue Oct 27, 9:05pm

Tue Oct 27, 8:04pm

Tue Oct 27, 7:04pm

Tue Oct 27, 6:04pm

Tue Oct 27, 5:04pm

Tue Oct 27, 4:05pm

Tue Oct 27, 3:04pm

Tue Oct 27, 2:04pm

Tue Oct 27, 1:04pm

Tue Oct 27, 12:04pm

Tue Oct 27, 11:04am

Tue Oct 27, 10:04am

Tue Oct 27, 9:04am

Tue Oct 27, 8:04am

Tue Oct 27, 7:04am

Tue Oct 27, 6:04am

Tue Oct 27, 5:04am

Tue Oct 27, 4:04am

Tue Oct 27, 3:04am

Tue Oct 27, 2:05am

Tue Oct 27, 1:04am

Tue Oct 27, 12:04am

Mon Oct 26, 11:05pm

Mon Oct 26, 10:04pm

Mon Oct 26, 9:04pm

Mon Oct 26, 8:04pm

Mon Oct 26, 7:04pm

Mon Oct 26, 6:04pm

Mon Oct 26, 5:04pm

Mon Oct 26, 4:05pm

Mon Oct 26, 2:04pm

Mon Oct 26, 1:04pm

Mon Oct 26, 12:04pm

Mon Oct 26, 11:05am

Mon Oct 26, 10:04am

Mon Oct 26, 9:04am

Mon Oct 26, 8:04am

Mon Oct 26, 7:04am

Mon Oct 26, 6:04am

Mon Oct 26, 5:04am

Mon Oct 26, 4:04am

Mon Oct 26, 3:04am

Mon Oct 26, 2:04am

Mon Oct 26, 1:04am

Mon Oct 26, 12:04am

Sun Oct 25, 11:05pm

Sun Oct 25, 10:04pm

Sun Oct 25, 9:04pm

Sun Oct 25, 8:04pm

Sun Oct 25, 7:04pm

Sun Oct 25, 6:04pm

Sun Oct 25, 5:04pm

Sun Oct 25, 4:05pm

Sun Oct 25, 3:04pm

Sun Oct 25, 2:04pm

Sun Oct 25, 1:04pm

Sun Oct 25, 12:04pm

Sun Oct 25, 11:04am

Sun Oct 25, 10:04am

Sun Oct 25, 9:04am

Sun Oct 25, 8:04am

Sun Oct 25, 7:04am

Sun Oct 25, 6:04am

Sun Oct 25, 5:04am

Sun Oct 25, 4:04am

Sun Oct 25, 3:04am

Sun Oct 25, 2:04am

Sun Oct 25, 1:05am

Sun Oct 25, 12:04am

Sat Oct 24, 11:04pm

Sat Oct 24, 10:04pm

Sat Oct 24, 9:04pm

Sat Oct 24, 8:04pm

Sat Oct 24, 7:04pm

Sat Oct 24, 6:04pm

Sat Oct 24, 5:05pm

Sat Oct 24, 4:04pm

Sat Oct 24, 3:04pm

Sat Oct 24, 2:04pm

Sat Oct 24, 1:05pm

Sat Oct 24, 12:04pm

Sat Oct 24, 11:05am

Sat Oct 24, 10:05am

Sat Oct 24, 9:04am

Sat Oct 24, 8:04am

Sat Oct 24, 7:04am

Sat Oct 24, 6:04am

Sat Oct 24, 5:04am

Sat Oct 24, 4:04am

Sat Oct 24, 3:04am

Sat Oct 24, 2:04am

Sat Oct 24, 1:05am

Sat Oct 24, 12:04am

Fri Oct 23, 11:04pm

Fri Oct 23, 10:04pm

Fri Oct 23, 9:04pm

Fri Oct 23, 8:05pm

Fri Oct 23, 7:04pm

Fri Oct 23, 6:04pm

Fri Oct 23, 5:05pm

Fri Oct 23, 4:04pm

Fri Oct 23, 3:04pm

Fri Oct 23, 2:05pm

Fri Oct 23, 1:04pm

Fri Oct 23, 12:04pm

Fri Oct 23, 11:04am

Fri Oct 23, 10:04am

Fri Oct 23, 9:04am

Fri Oct 23, 8:04am

Fri Oct 23, 7:04am

Fri Oct 23, 6:04am

Meta data:

ID: b7f131e4-e062-47c2-b0cd-76864eab5e8b
Link: https://api.weather.gov/products/b7f131e4-e062-47c2-b0cd-76864eab5e8b